Roseau, MN

3:32 AM CST on February 28, 2017 (GMT -0600)
Roseau Municipal-Billberg

Weather History for KROX - December, 2012

Change the Weather History Date:

Friday, December 21, 2012

  Actual Average Record
Temperature  
Mean Temperature 6 °F -  
Max Temperature 10 °F 14 °F 42 °F (2003)
Min Temperature 1 °F -5 °F -37 °F (1963)
Degree Days  
Heating Degree Days 60    
Moisture  
Dew Point 2 °F    
Average Humidity 80    
Maximum Humidity 85    
Minimum Humidity 78    
Precipitation  
Precipitation 0.00 in - - ()
Sea Level Pressure  
Sea Level Pressure 30.17 in    
Wind  
Wind Speed 3 mph (South)    
Max Wind Speed 10 mph    
Max Gust Speed -    
Visibility 8 miles    
Events Snow    
Averages and records for this station are not official NWS values.
T = Trace of Precipitation, MM = Missing Value Source: NWS Daily Summary

Daily Weather History Graph

Daily Weather History Graph

Search for Another Location

Airport or City:

Trip Planner

Search our weather history database for the weather conditions in past years. The results will help you decide how hot, cold, wet, or windy it might be!

Date:

Astronomy

Dec. 21, 2012 Rise Set
Actual Time 8:13 AM CST 4:28 PM CST
Civil Twilight 7:36 AM CST 5:05 PM CST
Nautical Twilight 6:56 AM CST 5:46 PM CST
Astronomical Twilight 6:17 AM CST 6:24 PM CST
Moon 12:35 PM CST (12/21) 1:39 AM CST (12/21)
Length of Visible Light 9h 29m
Length of Day
8h 14m
Waxing Gibbous, 65% of the Moon is Illuminated
Dec 21
Waxing Gibbous
Dec 28
Full
Jan 4
Last Quarter
Jan 11
New
Jan 18
First Quarter

Hourly Weather History & Observations

Time (CST) Temp. Windchill Dew Point Humidity Pressure Visibility Wind Dir Wind Speed Gust Speed Precip Events Conditions
12:14 AM 6.8 °F -2.0 °F 3.2 °F 85% 30.19 in 5.0 mi NW 4.6 mph - N/A Snow Light Snow
12:35 AM 6.8 °F -0.1 °F 3.2 °F 85% 30.18 in 7.0 mi NW 3.5 mph - N/A Snow Light Snow
12:54 AM 6.8 °F -2.0 °F 3.2 °F 85% 30.19 in 7.0 mi NNW 4.6 mph - N/A Snow Light Snow
1:14 AM 6.8 °F -2.0 °F 1.4 °F 79% 30.19 in 7.0 mi NW 4.6 mph - N/A Snow Light Snow
1:35 AM 6.8 °F -0.1 °F 1.4 °F 79% 30.20 in 7.0 mi NNW 3.5 mph - N/A Snow Light Snow
1:54 AM 6.8 °F -2.0 °F 1.4 °F 79% 30.21 in 10.0 mi WNW 4.6 mph - N/A Snow Light Snow
2:14 AM 6.8 °F - 1.4 °F 79% 30.21 in 7.0 mi Calm Calm - N/A Snow Light Snow
2:35 AM 6.8 °F -0.1 °F 1.4 °F 79% 30.21 in 5.0 mi WNW 3.5 mph - N/A Snow Light Snow
2:54 AM 6.8 °F -0.1 °F 1.4 °F 79% 30.21 in 10.0 mi NW 3.5 mph - N/A   Overcast
3:14 AM 6.8 °F -3.5 °F 1.4 °F 79% 30.22 in 7.0 mi NW 5.8 mph - N/A Snow Light Snow
3:34 AM 6.8 °F -0.1 °F 1.4 °F 79% 30.22 in 4.0 mi West 3.5 mph - N/A Snow Light Snow
3:54 AM 6.8 °F -3.5 °F 1.4 °F 79% 30.21 in 10.0 mi North 5.8 mph - N/A   Overcast
4:14 AM 6.8 °F -0.1 °F 1.4 °F 79% 30.22 in 7.0 mi NNW 3.5 mph - N/A Snow Light Snow
4:34 AM 6.8 °F -0.1 °F 1.4 °F 79% 30.24 in 7.0 mi WNW 3.5 mph - N/A Snow Light Snow
4:54 AM 6.8 °F - 1.4 °F 79% 30.23 in 10.0 mi Calm Calm - N/A   Overcast
5:14 AM 6.8 °F - 1.4 °F 79% 30.23 in 10.0 mi Calm Calm - N/A   Overcast
5:34 AM 6.8 °F -0.1 °F 1.4 °F 79% 30.23 in 10.0 mi NW 3.5 mph - N/A Snow Light Snow
5:54 AM 6.8 °F - 1.4 °F 79% 30.24 in 5.0 mi Calm Calm - N/A Snow Light Snow
6:14 AM 6.8 °F - 1.4 °F 79% 30.23 in 7.0 mi Calm Calm - N/A Snow Light Snow
6:34 AM 6.8 °F - 1.4 °F 79% 30.24 in 7.0 mi Calm Calm - N/A Snow Light Snow
6:54 AM 6.8 °F - 1.4 °F 79% 30.23 in 10.0 mi Calm Calm - N/A Snow Light Snow
7:14 AM 6.8 °F - 1.4 °F 79% 30.22 in 2.5 mi Calm Calm - N/A Snow Light Snow
7:34 AM 6.8 °F - 1.4 °F 79% 30.23 in 5.0 mi Calm Calm - N/A Snow Light Snow
7:54 AM 6.8 °F - 1.4 °F 79% 30.24 in 7.0 mi Calm Calm - N/A Snow Light Snow
8:14 AM 5.0 °F - -0.4 °F 78% 30.23 in 10.0 mi Calm Calm - N/A   Overcast
8:34 AM 6.8 °F - 1.4 °F 79% 30.24 in 5.0 mi Calm Calm - N/A Snow Light Snow
8:54 AM 6.8 °F - 1.4 °F 79% 30.25 in 2.5 mi Calm Calm - N/A Snow Light Snow
9:14 AM 6.8 °F - 1.4 °F 79% 30.24 in 5.0 mi Calm Calm - N/A Snow Light Snow
9:34 AM 6.8 °F - 1.4 °F 79% 30.24 in 7.0 mi Calm Calm - N/A Snow Light Snow
9:54 AM 6.8 °F - 1.4 °F 79% 30.25 in 5.0 mi Calm Calm - N/A Snow Light Snow
10:14 AM 6.8 °F - 1.4 °F 79% 30.25 in 7.0 mi Calm Calm - N/A Snow Light Snow
10:34 AM 6.8 °F - 1.4 °F 79% 30.25 in 1.8 mi Calm Calm - N/A Snow Light Snow
10:54 AM 6.8 °F -0.1 °F 1.4 °F 79% 30.24 in 1.8 mi South 3.5 mph - N/A Snow Light Snow
11:14 AM 6.8 °F - 1.4 °F 79% 30.23 in 5.0 mi Calm Calm - N/A Snow Light Snow
11:34 AM 6.8 °F -3.5 °F 1.4 °F 79% 30.22 in 7.0 mi SSW 5.8 mph - N/A Snow Light Snow
11:54 AM 6.8 °F -4.8 °F 1.4 °F 79% 30.21 in 7.0 mi South 6.9 mph - N/A Snow Light Snow
12:14 PM 6.8 °F -3.5 °F 1.4 °F 79% 30.21 in 1.2 mi SSW 5.8 mph - N/A Snow Light Snow
12:34 PM 8.6 °F 2.0 °F 3.2 °F 79% 30.21 in 4.0 mi South 3.5 mph - N/A Snow Light Snow
12:54 PM 8.6 °F -1.3 °F 3.2 °F 79% 30.21 in 7.0 mi South 5.8 mph - N/A Snow Light Snow
1:14 PM 8.6 °F 0.1 °F 3.2 °F 79% 30.20 in 7.0 mi South 4.6 mph - N/A Snow Light Snow
1:34 PM 6.8 °F -0.1 °F 1.4 °F 79% 30.20 in 3.0 mi South 3.5 mph - N/A Snow Light Snow
1:54 PM 8.6 °F - 3.2 °F 79% 30.18 in 2.0 mi Calm Calm - N/A Snow Light Snow
2:14 PM 8.6 °F - 3.2 °F 79% 30.18 in 10.0 mi Calm Calm - N/A   Clear
2:34 PM 8.6 °F - 3.2 °F 79% 30.17 in 5.0 mi Calm Calm - N/A Snow Light Snow
2:54 PM 8.6 °F - 3.2 °F 79% 30.17 in 10.0 mi Calm Calm - N/A   Clear
3:14 PM 8.6 °F 2.0 °F 3.2 °F 79% 30.16 in 7.0 mi SE 3.5 mph - N/A   Clear
3:34 PM 8.6 °F 0.1 °F 3.2 °F 79% 30.16 in 10.0 mi South 4.6 mph - N/A   Clear
3:54 PM 8.6 °F -1.3 °F 3.2 °F 79% 30.16 in 10.0 mi SSW 5.8 mph - N/A   Clear
4:14 PM 6.8 °F -0.1 °F 1.4 °F 79% 30.16 in 10.0 mi South 3.5 mph - N/A   Clear
4:34 PM 6.8 °F -0.1 °F 1.4 °F 79% 30.15 in 10.0 mi SSE 3.5 mph - N/A   Clear
4:54 PM 6.8 °F -2.0 °F 1.4 °F 79% 30.14 in 10.0 mi SE 4.6 mph - N/A   Clear
5:15 PM 6.8 °F -3.5 °F 1.4 °F 79% 30.14 in 10.0 mi SE 5.8 mph - N/A   Clear
5:34 PM 3.2 °F -6.2 °F -0.4 °F 85% 30.14 in 10.0 mi SSE 4.6 mph - N/A   Clear
5:54 PM 1.4 °F -8.3 °F -4.0 °F 78% 30.13 in 10.0 mi SE 4.6 mph - N/A   Clear
6:15 PM 3.2 °F - -2.2 °F 78% 30.13 in 10.0 mi Calm Calm - N/A   Clear
6:34 PM 3.2 °F -6.2 °F -0.4 °F 85% 30.12 in 10.0 mi SE 4.6 mph - N/A   Clear
6:54 PM 6.8 °F - 1.4 °F 79% 30.12 in 10.0 mi Calm Calm - N/A   Clear
7:15 PM 8.6 °F 0.1 °F 3.2 °F 79% 30.11 in 10.0 mi SE 4.6 mph - N/A   Clear
7:34 PM 6.8 °F -0.1 °F 3.2 °F 85% 30.11 in 10.0 mi SE 3.5 mph - N/A   Clear
7:54 PM 6.8 °F -5.9 °F 1.4 °F 79% 30.09 in 10.0 mi SSE 8.1 mph - N/A   Clear
8:15 PM 8.6 °F -3.7 °F 3.2 °F 79% 30.08 in 10.0 mi South 8.1 mph - N/A   Clear
8:34 PM 10.4 °F -3.3 °F 5.0 °F 79% 30.07 in 10.0 mi South 10.4 mph - N/A   Clear
8:54 PM 8.6 °F -4.7 °F 3.2 °F 79% 30.08 in 10.0 mi South 9.2 mph - N/A   Clear
9:15 PM 8.6 °F -4.7 °F 3.2 °F 79% 30.08 in 10.0 mi South 9.2 mph - N/A   Clear
9:34 PM 8.6 °F -2.6 °F 3.2 °F 79% 30.07 in 10.0 mi SSE 6.9 mph - N/A   Clear
9:54 PM 8.6 °F 0.1 °F 3.2 °F 79% 30.07 in 10.0 mi SSE 4.6 mph - N/A   Clear
10:15 PM 8.6 °F 0.1 °F 3.2 °F 79% 30.06 in 10.0 mi SSE 4.6 mph - N/A   Clear
10:34 PM 8.6 °F -2.6 °F 3.2 °F 79% 30.05 in 10.0 mi South 6.9 mph - N/A   Clear
10:54 PM 8.6 °F -2.6 °F 3.2 °F 79% 30.05 in 10.0 mi South 6.9 mph - N/A   Clear
11:14 PM 8.6 °F -3.7 °F 3.2 °F 79% 30.04 in 10.0 mi SSE 8.1 mph - N/A   Clear
11:34 PM 8.6 °F -3.7 °F 3.2 °F 79% 30.03 in 10.0 mi South 8.1 mph - N/A   Clear
11:54 PM 10.4 °F -2.4 °F 6.8 °F 85% 30.02 in 10.0 mi South 9.2 mph - N/A   Scattered Clouds